This demonstration page uses our WeatherBlox Daily Observations layout. Learn more.

39.29038, -76.61219

Hourly Observations for July 21, 2015

Temp ( °F °C ) Dew Point ( °F °C ) Humidity (%) Winds ( mph kmh ) Pressure ( in mb ) Visibility ( mi km ) Precip ( " mm )
12:54 am 00:54 Cloudy 84 29 70 21 62 62 undefined N/A 29.71 1006 N/A 0 0
1:54 am 01:54 undefined 82 28 72 22 70 70 undefined N/A 29.71 1006 N/A 0 0
2:54 am 02:54 undefined 82 28 70 21 66 66 undefined N/A 29.68 1005 N/A 0 0
3:54 am 03:54 undefined 82 28 68 20 62 62 undefined N/A 29.68 1005 N/A 0 0
4:54 am 04:54 Clear 82 28 66 19 58 58 undefined N/A 29.68 1005 N/A 0 0
5:54 am 05:54 Cloudy 82 28 66 19 58 58 undefined N/A 29.68 1005 N/A 0 0
6:54 am 06:54 undefined 82 28 68 20 62 62 undefined N/A 29.68 1005 N/A 0 0
7:54 am 07:54 undefined 82 28 68 20 62 62 undefined N/A 29.68 1005 N/A 0 0
8:54 am 08:54 undefined 84 29 68 20 58 58 undefined N/A 29.68 1005 N/A 0 0
9:54 am 09:54 Mostly Cloudy 88 31 70 21 55 55 undefined N/A 29.68 1005 N/A 0 0
10:54 am 10:54 undefined 90 32 70 21 52 52 undefined N/A 29.68 1005 N/A 0 0
11:54 am 11:54 undefined 88 31 70 21 55 55 undefined N/A 29.68 1005 N/A 0 0
12:54 pm 12:54 undefined 88 31 70 21 55 55 undefined N/A 29.68 1005 N/A 0 0
1:54 pm 13:54 Cloudy 88 31 70 21 55 55 undefined N/A 29.65 1004 N/A 0.001 0.001
2:54 pm 14:54 Partly Cloudy 90 32 70 21 52 52 undefined N/A 29.62 1003 N/A 0 0
3:54 pm 15:54 undefined 90 32 70 21 52 52 undefined N/A 29.62 1003 N/A 0 0
4:54 pm 16:54 undefined 90 32 70 21 52 52 undefined N/A 29.62 1003 N/A 0 0
5:54 pm 17:54 Mostly Sunny 90 32 70 21 52 52 undefined N/A 29.62 1003 N/A 0 0
6:54 pm 18:54 undefined 88 31 70 21 55 55 undefined N/A 29.62 1003 N/A 0 0
7:54 pm 19:54 Mostly Cloudy 88 31 70 21 55 55 undefined N/A 29.65 1004 N/A 0 0
8:54 pm 20:54 undefined 82 28 66 19 58 58 undefined N/A 29.68 1005 N/A 0 0
9:54 pm 21:54 Cloudy 77 25 68 20 74 74 undefined N/A 29.71 1006 N/A 0.03 0.762
10:54 pm 22:54 undefined 79 26 64 18 61 61 undefined N/A 29.71 1006 N/A 0 0
11:54 pm 23:54 undefined 79 26 64 18 61 61 undefined N/A 29.74 1007 N/A 0 0

Powered by AerisWeather